Terug naar catalogus

COSMOS 1275 DEB

ActiefPO
NORAD 13811·DEBRIS·🇷🇺 Russia

Gelanceerd Jun 4, 1981 vanaf Plesetsk Cosmodrome

Loading…

Volgende Passages (komende 24 uur)

TLE

VersSource: Space-Track

Epoch: Sep 14, 2026, 16:20 UTC

1 13811U 81053HF  26257.68065267  .00001502  00000-0  74711-3 0  9994
2 13811  82.9367 156.4740 0008137 209.2586 178.3545 14.16453568227174

Volg COSMOS 1275 DEB in realtime met AllMySat

Download on the App Store